| time (UTC) | temp F | wind direction | speed knots | gust knots | rain 1hr in | rain 24hr in | rain mn in | humidity % | barometer mb |
| 20260506123039 | 68 | 210 | 1.7 | 8.7 | 0.00 | 0.00 | 0.00 | 64 | 1009.9 |
| 20260506122535 | 68 | 181 | 1.7 | 7.0 | 0.00 | 0.00 | 0.00 | 65 | 1009.9 |
| 20260506122034 | 68 | 212 | 1.7 | 3.5 | 0.00 | 0.00 | 0.00 | 65 | 1009.8 |
| 20260506121531 | 68 | 232 | 0.0 | 3.5 | 0.00 | 0.00 | 0.00 | 66 | 1009.8 |
| 20260506121027 | 68 | 217 | 1.7 | 7.8 | 0.00 | 0.00 | 0.00 | 65 | 1010.3 |
| 20260506120525 | 68 | 116 | 3.5 | 7.0 | 0.00 | 0.00 | 0.00 | 66 | 1010.3 |
| 20260506120022 | 68 | 182 | 1.7 | 5.2 | 0.00 | 0.00 | 0.00 | 66 | 1010.3 |
| 20260506115520 | 68 | 235 | 1.7 | 6.1 | 0.00 | 0.00 | 0.00 | 66 | 1010.3 |
| 20260506115018 | 68 | 209 | 1.7 | 3.5 | 0.00 | 0.00 | 0.00 | 67 | 1010.4 |
| 20260506114515 | 67 | 64 | 1.7 | 5.2 | 0.00 | 0.00 | 0.00 | 67 | 1010.2 |
| 20260506114014 | 67 | 184 | 6.1 | 8.7 | 0.00 | 0.00 | 0.00 | 67 | 1010.5 |
| 20260506113511 | 67 | 125 | 0.9 | 3.5 | 0.00 | 0.00 | 0.00 | 69 | 1010.3 |
| 20260506113008 | 67 | 186 | 0.9 | 7.8 | 0.00 | 0.00 | 0.00 | 68 | 1010.4 |
| 20260506112505 | 66 | 175 | 0.9 | 1.7 | 0.00 | 0.00 | 0.00 | 70 | 1010.4 |
| 20260506112002 | 66 | 238 | 0.9 | 3.5 | 0.00 | 0.00 | 0.00 | 70 | 1010.4 |
| 20260506111500 | 66 | 98 | 2.6 | 5.2 | 0.00 | 0.00 | 0.00 | 71 | 1010.1 |
| 20260506110957 | 65 | 193 | 3.5 | 5.2 | 0.00 | 0.00 | 0.00 | 72 | 1010.3 |
| 20260506110455 | 65 | 196 | 3.5 | 5.2 | 0.00 | 0.00 | 0.00 | 72 | 1010.2 |
| 20260506105951 | 65 | 214 | 0.9 | 3.5 | 0.00 | 0.00 | 0.00 | 73 | 1010.0 |
| 20260506105447 | 64 | 160 | 0.0 | 3.5 | 0.00 | 0.00 | 0.00 | 73 | 1010.0 |
| 20260506104945 | 64 | 206 | 1.7 | 5.2 | 0.00 | 0.00 | 0.00 | 74 | 1010.0 |
| 20260506104443 | 64 | 232 | 2.6 | 2.6 | 0.00 | 0.00 | 0.00 | 74 | 1010.0 |
| 20260506103941 | 64 | 195 | 0.0 | 2.6 | 0.00 | 0.00 | 0.00 | 74 | 1010.1 |
| 20260506103438 | 64 | 228 | 0.9 | 7.0 | 0.00 | 0.00 | 0.00 | 74 | 1010.2 |
| 20260506102934 | 64 | 138 | 2.6 | 2.6 | 0.00 | 0.00 | 0.00 | 74 | 1010.1 |
| 20260506102432 | 64 | 112 | 3.5 | 3.5 | 0.00 | 0.00 | 0.00 | 74 | 1010.1 |
| 20260506101929 | 64 | 187 | 0.9 | 2.6 | 0.00 | 0.00 | 0.00 | 74 | 1010.2 |
| 20260506101426 | 64 | 198 | 0.9 | 1.7 | 0.00 | 0.00 | 0.00 | 74 | 1010.0 |
| 20260506100923 | 64 | 280 | 4.3 | 6.1 | 0.00 | 0.00 | 0.00 | 75 | 1009.8 |
| 20260506100422 | 64 | 220 | 1.7 | 5.2 | 0.00 | 0.00 | 0.00 | 75 | 1009.9 |
| 20260506095919 | 63 | 202 | 1.7 | 1.7 | 0.00 | 0.00 | 0.00 | 76 | 1009.8 |
| 20260506095418 | 64 | 208 | 0.9 | 1.7 | 0.00 | 0.00 | 0.00 | 75 | 1009.9 |
| 20260506094913 | 64 | 233 | 0.9 | 1.7 | 0.00 | 0.00 | 0.00 | 75 | 1009.9 |
| 20260506094412 | 63 | 226 | 0.9 | 3.5 | 0.00 | 0.00 | 0.00 | 76 | 1009.8 |
| 20260506093909 | 63 | 201 | 0.0 | 0.9 | 0.00 | 0.00 | 0.00 | 75 | 1010.0 |
| 20260506093407 | 64 | 221 | 1.7 | 2.6 | 0.00 | 0.00 | 0.00 | 75 | 1010.0 |
| 20260506092905 | 64 | 107 | 1.7 | 3.5 | 0.00 | 0.00 | 0.00 | 75 | 1009.9 |
| 20260506092403 | 64 | 215 | 0.9 | 1.7 | 0.00 | 0.00 | 0.00 | 74 | 1009.7 |
| 20260506091859 | 64 | 200 | 0.9 | 2.6 | 0.00 | 0.00 | 0.00 | 74 | 1010.0 |
| 20260506091357 | 64 | 200 | 0.9 | 1.7 | 0.00 | 0.00 | 0.00 | 74 | 1009.9 |
| 20260506090854 | 64 | 212 | 1.7 | 2.6 | 0.00 | 0.00 | 0.00 | 74 | 1010.1 |
| 20260506090352 | 64 | 157 | 0.0 | 1.7 | 0.00 | 0.00 | 0.00 | 74 | 1010.0 |
| 20260506085848 | 64 | 247 | 1.7 | 5.2 | 0.00 | 0.00 | 0.00 | 73 | 1010.2 |
| 20260506085344 | 64 | 224 | 1.7 | 5.2 | 0.00 | 0.00 | 0.00 | 73 | 1010.1 |
| 20260506084841 | 64 | 249 | 0.9 | 1.7 | 0.00 | 0.00 | 0.00 | 73 | 1010.1 |
| 20260506084338 | 64 | 168 | 0.9 | 3.5 | 0.00 | 0.00 | 0.00 | 72 | 1010.1 |
| 20260506083834 | 64 | 276 | 1.7 | 3.5 | 0.00 | 0.00 | 0.00 | 72 | 1010.2 |
| 20260506083332 | 65 | 196 | 0.9 | 2.6 | 0.00 | 0.00 | 0.00 | 72 | 1010.0 |
| 20260506082829 | 65 | 214 | 2.6 | 5.2 | 0.00 | 0.00 | 0.00 | 71 | 1010.1 |
| 20260506082325 | 65 | 190 | 0.9 | 6.1 | 0.00 | 0.00 | 0.00 | 71 | 1010.1 |
| 20260506081822 | 65 | 302 | 1.7 | 2.6 | 0.00 | 0.00 | 0.00 | 71 | 1010.1 |
| 20260506081320 | 65 | 191 | 1.7 | 5.2 | 0.00 | 0.00 | 0.00 | 71 | 1010.1 |
| 20260506080817 | 65 | 166 | 0.9 | 2.6 | 0.00 | 0.00 | 0.00 | 71 | 1010.2 |
| 20260506080313 | 65 | 61 | 0.9 | 2.6 | 0.00 | 0.00 | 0.00 | 70 | 1010.1 |
| 20260506073258 | 65 | 219 | 1.7 | 2.6 | 0.00 | 0.00 | 0.00 | 68 | 1010.3 |
| 20260506072754 | 66 | 184 | 0.9 | 1.7 | 0.00 | 0.00 | 0.00 | 68 | 1010.2 |
| 20260506072252 | 66 | 214 | 1.7 | 2.6 | 0.00 | 0.00 | 0.00 | 67 | 1010.1 |
| 20260506071749 | 66 | 190 | 0.9 | 6.1 | 0.00 | 0.00 | 0.00 | 67 | 1010.1 |
| 20260506071247 | 67 | 89 | 0.9 | 3.5 | 0.00 | 0.00 | 0.00 | 66 | 1010.5 |
| 20260506070744 | 67 | 207 | 2.6 | 3.5 | 0.00 | 0.00 | 0.00 | 65 | 1010.2 |
| 20260506070241 | 67 | 195 | 0.9 | 6.1 | 0.00 | 0.00 | 0.00 | 65 | 1010.3 |
| 20260506062218 | 67 | 200 | 0.9 | 5.2 | 0.00 | 0.00 | 0.00 | 63 | 1010.3 |
| 20260506061714 | 67 | 200 | 0.9 | 5.2 | 0.00 | 0.00 | 0.00 | 64 | 1010.4 |
| 20260506061212 | 67 | 201 | 0.0 | 2.6 | 0.00 | 0.00 | 0.00 | 63 | 1010.3 |
| 20260506060710 | 67 | 199 | 1.7 | 2.6 | 0.00 | 0.00 | 0.00 | 62 | 1010.4 |
| 20260506060207 | 67 | 195 | 0.0 | 1.7 | 0.00 | 0.00 | 0.00 | 62 | 1010.4 |
| 20260506051139 | 69 | 211 | 0.9 | 1.7 | 0.00 | 0.00 | 0.00 | 59 | 1011.1 |
| 20260506050637 | 69 | 128 | 4.3 | 6.1 | 0.00 | 0.00 | 0.00 | 58 | 1011.0 |
| 20260506050134 | 69 | 214 | 3.5 | 5.2 | 0.00 | 0.00 | 0.00 | 58 | 1010.9 |
| 20260506045126 | 69 | 142 | 2.6 | 5.2 | 0.00 | 0.00 | 0.00 | 57 | 1010.9 |
| 20260506044625 | 69 | 85 | 0.9 | 8.7 | 0.00 | 0.00 | 0.00 | 56 | 1010.8 |
| 20260506044122 | 70 | 211 | 0.9 | 6.1 | 0.00 | 0.00 | 0.00 | 56 | 1010.8 |
| 20260506043619 | 69 | 110 | 2.6 | 3.5 | 0.00 | 0.00 | 0.00 | 56 | 1010.9 |
| 20260506043117 | 70 | 209 | 0.9 | 6.1 | 0.00 | 0.00 | 0.00 | 56 | 1011.0 |
| 20260506042616 | 70 | 207 | 1.7 | 2.6 | 0.00 | 0.00 | 0.00 | 55 | 1010.7 |
| 20260506042113 | 70 | 118 | 4.3 | 6.1 | 0.00 | 0.00 | 0.00 | 55 | 1010.7 |
| 20260506041612 | 70 | 285 | 3.5 | 5.2 | 0.00 | 0.00 | 0.00 | 55 | 1010.8 |
| 20260506041108 | 70 | 199 | 0.0 | 2.6 | 0.00 | 0.00 | 0.00 | 54 | 1010.6 |
| 20260506040606 | 70 | 171 | 5.2 | 6.1 | 0.00 | 0.00 | 0.00 | 54 | 1010.8 |
| 20260506035559 | 70 | 183 | 0.9 | 3.5 | 0.00 | 0.00 | 0.00 | 54 | 1010.5 |
| 20260506035056 | 70 | 293 | 0.0 | 3.5 | 0.00 | 0.00 | 0.00 | 53 | 1010.5 |
| 20260506034553 | 70 | 192 | 2.6 | 9.6 | 0.00 | 0.00 | 0.00 | 53 | 1010.6 |
| 20260506034050 | 70 | 96 | 2.6 | 5.2 | 0.00 | 0.00 | 0.00 | 54 | 1010.8 |
| 20260506033547 | 69 | 30 | 0.9 | 2.6 | 0.00 | 0.00 | 0.00 | 55 | 1010.7 |
| 20260506033044 | 69 | 220 | 1.7 | 2.6 | 0.00 | 0.00 | 0.00 | 55 | 1010.7 |
| 20260506032542 | 69 | 135 | 0.9 | 1.7 | 0.00 | 0.00 | 0.00 | 55 | 1010.5 |
| 20260506032038 | 69 | 228 | 1.7 | 1.7 | 0.00 | 0.00 | 0.00 | 55 | 1010.7 |
| 20260506031536 | 70 | 232 | 0.9 | 1.7 | 0.00 | 0.00 | 0.00 | 55 | 1010.8 |
| 20260506031033 | 70 | 144 | 0.9 | 5.2 | 0.00 | 0.00 | 0.00 | 54 | 1010.6 |
| 20260506030531 | 70 | 183 | 2.6 | 6.1 | 0.00 | 0.00 | 0.00 | 54 | 1010.5 |
| 20260506030028 | 70 | 177 | 1.7 | 2.6 | 0.00 | 0.00 | 0.00 | 54 | 1010.5 |
| 20260506025525 | 70 | 236 | 1.7 | 2.6 | 0.00 | 0.00 | 0.00 | 54 | 1010.6 |
| 20260506025020 | 70 | 189 | 1.7 | 1.7 | 0.00 | 0.00 | 0.00 | 53 | 1010.4 |
| 20260506024517 | 71 | 229 | 0.9 | 1.7 | 0.00 | 0.00 | 0.00 | 53 | 1010.4 |
| 20260506024014 | 71 | 178 | 1.7 | 2.6 | 0.00 | 0.00 | 0.00 | 53 | 1010.4 |
| 20260506023510 | 71 | 143 | 3.5 | 6.1 | 0.00 | 0.00 | 0.00 | 53 | 1010.9 |
| 20260506023008 | 71 | 187 | 0.9 | 2.6 | 0.00 | 0.00 | 0.00 | 52 | 1010.6 |
| 20260506022505 | 71 | 198 | 1.7 | 3.5 | 0.00 | 0.00 | 0.00 | 51 | 1010.5 |
| 20260506022003 | 71 | 224 | 0.9 | 5.2 | 0.00 | 0.00 | 0.00 | 52 | 1010.4 |
| 20260506021500 | 71 | 250 | 2.6 | 6.1 | 0.00 | 0.00 | 0.00 | 51 | 1010.7 |
| 20260506020957 | 71 | 219 | 1.7 | 7.0 | 0.00 | 0.00 | 0.00 | 51 | 1010.6 |
| 20260506020454 | 71 | 188 | 1.7 | 3.5 | 0.00 | 0.00 | 0.00 | 51 | 1010.4 |
| 20260506015951 | 72 | 180 | 0.9 | 7.0 | 0.00 | 0.00 | 0.00 | 50 | 1010.5 |
| 20260506015449 | 72 | 145 | 1.7 | 6.1 | 0.00 | 0.00 | 0.00 | 50 | 1010.6 |
| 20260506014946 | 72 | 308 | 1.7 | 6.1 | 0.00 | 0.00 | 0.00 | 50 | 1010.3 |
| 20260506014442 | 72 | 193 | 1.7 | 3.5 | 0.00 | 0.00 | 0.00 | 50 | 1010.2 |
| 20260506013939 | 72 | 118 | 2.6 | 5.2 | 0.00 | 0.00 | 0.00 | 49 | 1010.1 |
| 20260506013437 | 72 | 137 | 1.7 | 2.6 | 0.00 | 0.00 | 0.00 | 48 | 1010.2 |
| 20260506012933 | 72 | 195 | 3.5 | 8.7 | 0.00 | 0.00 | 0.00 | 47 | 1010.1 |
| 20260506012430 | 73 | 70 | 2.6 | 3.5 | 0.00 | 0.00 | 0.00 | 47 | 1010.1 |
| 20260506011927 | 74 | 102 | 1.7 | 3.5 | 0.00 | 0.00 | 0.00 | 45 | 1010.0 |
| 20260506011424 | 75 | 110 | 4.3 | 6.1 | 0.00 | 0.00 | 0.00 | 43 | 1009.8 |
| 20260506010921 | 76 | 185 | 1.7 | 2.6 | 0.00 | 0.00 | 0.00 | 39 | 1009.8 |
| 20260506010420 | 77 | 187 | 2.6 | 5.2 | 0.00 | 0.00 | 0.00 | 37 | 1009.6 |
| 20260506005915 | 77 | 250 | 2.6 | 6.1 | 0.00 | 0.00 | 0.00 | 37 | 1009.5 |
| 20260506005414 | 77 | 176 | 1.7 | 8.7 | 0.00 | 0.00 | 0.00 | 37 | 1009.4 |
| 20260506004908 | 78 | 193 | 4.3 | 6.1 | 0.00 | 0.00 | 0.00 | 36 | 1009.6 |
| 20260506004407 | 78 | 156 | 1.7 | 3.5 | 0.00 | 0.00 | 0.00 | 36 | 1009.5 |
| 20260506003902 | 78 | 186 | 1.7 | 6.1 | 0.00 | 0.00 | 0.00 | 36 | 1009.4 |
| 20260506003359 | 78 | 343 | 1.7 | 7.0 | 0.00 | 0.00 | 0.00 | 35 | 1009.2 |
| 20260506002855 | 78 | 63 | 3.5 | 7.0 | 0.00 | 0.00 | 0.00 | 34 | 1009.1 |
| 20260506002351 | 78 | 201 | 0.9 | 2.6 | 0.00 | 0.00 | 0.00 | 33 | 1009.2 |
| 20260506001848 | 79 | 179 | 1.7 | 5.2 | 0.00 | 0.00 | 0.00 | 32 | 1009.2 |
| 20260506001344 | 79 | 83 | 1.7 | 2.6 | 0.00 | 0.00 | 0.00 | 33 | 1009.0 |
| 20260506000841 | 79 | 193 | 2.6 | 3.5 | 0.00 | 0.00 | 0.00 | 31 | 1008.9 |
| 20260506000340 | 79 | 251 | 1.7 | 6.1 | 0.00 | 0.00 | 0.00 | 31 | 1008.8 |
| 20260505235836 | 79 | 80 | 3.5 | 7.0 | 0.00 | 0.00 | 0.00 | 31 | 1009.0 |
| 20260505235333 | 79 | 187 | 3.5 | 5.2 | 0.00 | 0.00 | 0.00 | 31 | 1009.0 |
| 20260505234830 | 79 | 46 | 1.7 | 2.6 | 0.00 | 0.00 | 0.00 | 30 | 1008.7 |
| 20260505234328 | 79 | 194 | 0.9 | 1.7 | 0.00 | 0.00 | 0.00 | 30 | 1008.7 |
| 20260505233825 | 80 | 302 | 1.7 | 7.0 | 0.00 | 0.00 | 0.00 | 29 | 1008.7 |
| 20260505233322 | 80 | 65 | 2.6 | 7.0 | 0.00 | 0.00 | 0.00 | 30 | 1008.7 |
| 20260505232819 | 80 | 113 | 1.7 | 2.6 | 0.00 | 0.00 | 0.00 | 29 | 1008.6 |
| 20260505232317 | 80 | 229 | 2.6 | 5.2 | 0.00 | 0.00 | 0.00 | 28 | 1008.4 |
| 20260505231814 | 80 | 92 | 3.5 | 11.3 | 0.00 | 0.00 | 0.00 | 28 | 1008.6 |
| 20260505231312 | 80 | 155 | 1.7 | 5.2 | 0.00 | 0.00 | 0.00 | 28 | 1008.5 |
| 20260505230810 | 80 | 248 | 3.5 | 7.0 | 0.00 | 0.00 | 0.00 | 27 | 1008.5 |
| 20260505230306 | 81 | 99 | 1.7 | 3.5 | 0.00 | 0.00 | 0.00 | 27 | 1008.4 |
| 20260505225803 | 81 | 184 | 3.5 | 5.2 | 0.00 | 0.00 | 0.00 | 27 | 1008.2 |
| 20260505225301 | 82 | 208 | 4.3 | 8.7 | 0.00 | 0.00 | 0.00 | 27 | 1008.3 |
| 20260505224800 | 82 | 7 | 3.5 | 7.0 | 0.00 | 0.00 | 0.00 | 25 | 1008.2 |
| 20260505224259 | 82 | 210 | 2.6 | 7.0 | 0.00 | 0.00 | 0.00 | 26 | 1007.9 |
| 20260505223756 | 83 | 161 | 2.6 | 9.6 | 0.00 | 0.00 | 0.00 | 26 | 1008.0 |
| 20260505223252 | 83 | 111 | 2.6 | 6.1 | 0.00 | 0.00 | 0.00 | 27 | 1008.1 |
| 20260505222748 | 83 | 223 | 1.7 | 9.6 | 0.00 | 0.00 | 0.00 | 27 | 1007.9 |
| 20260505222245 | 83 | 6 | 4.3 | 7.0 | 0.00 | 0.00 | 0.00 | 26 | 1007.9 |
| 20260505221742 | 82 | 149 | 2.6 | 7.8 | 0.00 | 0.00 | 0.00 | 27 | 1007.9 |
| 20260505221238 | 82 | 139 | 1.7 | 2.6 | 0.00 | 0.00 | 0.00 | 27 | 1007.9 |
| 20260505220735 | 82 | 144 | 1.7 | 7.8 | 0.00 | 0.00 | 0.00 | 27 | 1007.9 |
| 20260505220233 | 82 | 173 | 0.9 | 7.0 | 0.00 | 0.00 | 0.00 | 27 | 1007.8 |
| 20260505215731 | 83 | 233 | 2.6 | 3.5 | 0.00 | 0.00 | 0.00 | 27 | 1007.7 |
| 20260505215228 | 84 | 226 | 5.2 | 8.7 | 0.00 | 0.00 | 0.00 | 26 | 1007.6 |
| 20260505214726 | 83 | 100 | 0.9 | 7.0 | 0.00 | 0.00 | 0.00 | 26 | 1007.8 |
| 20260505214223 | 83 | 100 | 2.6 | 9.6 | 0.00 | 0.00 | 0.00 | 26 | 1007.6 |
| 20260505213720 | 82 | 251 | 4.3 | 11.3 | 0.00 | 0.00 | 0.00 | 27 | 1007.5 |
| 20260505213218 | 83 | 218 | 2.6 | 7.0 | 0.00 | 0.00 | 0.00 | 26 | 1007.6 |
| 20260505212713 | 84 | 308 | 0.9 | 8.7 | 0.00 | 0.00 | 0.00 | 27 | 1007.6 |
| 20260505212211 | 84 | 226 | 4.3 | 6.1 | 0.00 | 0.00 | 0.00 | 26 | 1007.4 |
| 20260505211708 | 84 | 222 | 4.3 | 8.7 | 0.00 | 0.00 | 0.00 | 27 | 1007.7 |
| 20260505211206 | 84 | 258 | 3.5 | 9.6 | 0.00 | 0.00 | 0.00 | 27 | 1007.4 |
| 20260505210702 | 85 | 192 | 2.6 | 7.0 | 0.00 | 0.00 | 0.00 | 27 | 1007.6 |
| 20260505210159 | 85 | 276 | 2.6 | 7.8 | 0.00 | 0.00 | 0.00 | 27 | 1007.4 |
| 20260505205656 | 85 | 255 | 7.0 | 12.2 | 0.00 | 0.00 | 0.00 | 24 | 1007.6 |
| 20260505205154 | 85 | 188 | 3.5 | 5.2 | 0.00 | 0.00 | 0.00 | 28 | 1007.4 |
| 20260505204650 | 85 | 144 | 3.5 | 13.0 | 0.00 | 0.00 | 0.00 | 26 | 1007.7 |
| 20260505204148 | 85 | 182 | 1.7 | 8.7 | 0.00 | 0.00 | 0.00 | 27 | 1007.5 |
| 20260505203645 | 85 | 275 | 5.2 | 7.0 | 0.00 | 0.00 | 0.00 | 26 | 1007.8 |
| 20260505203143 | 86 | 123 | 8.7 | 13.0 | 0.00 | 0.00 | 0.00 | 26 | 1007.6 |
| 20260505202638 | 84 | 210 | 1.7 | 2.6 | 0.00 | 0.00 | 0.00 | 29 | 1007.6 |
| 20260505202134 | 85 | 220 | 7.8 | 12.2 | 0.00 | 0.00 | 0.00 | 25 | 1007.6 |
| 20260505201630 | 85 | 307 | 7.0 | 9.6 | 0.00 | 0.00 | 0.00 | 26 | 1007.4 |
| 20260505201129 | 85 | 182 | 5.2 | 8.7 | 0.00 | 0.00 | 0.00 | 26 | 1007.6 |
| 20260505200627 | 85 | 36 | 3.5 | 7.0 | 0.00 | 0.00 | 0.00 | 25 | 1007.8 |
| 20260505200124 | 86 | 142 | 7.0 | 12.2 | 0.00 | 0.00 | 0.00 | 25 | 1007.6 |
| 20260505195620 | 86 | 232 | 2.6 | 6.1 | 0.00 | 0.00 | 0.00 | 25 | 1008.0 |
| 20260505195117 | 85 | 278 | 2.6 | 5.2 | 0.00 | 0.00 | 0.00 | 26 | 1008.0 |
| 20260505194614 | 85 | 163 | 3.5 | 8.7 | 0.00 | 0.00 | 0.00 | 26 | 1007.9 |
| 20260505194109 | 86 | 248 | 1.7 | 7.8 | 0.00 | 0.00 | 0.00 | 29 | 1008.1 |
| 20260505193607 | 86 | 109 | 2.6 | 7.0 | 0.00 | 0.00 | 0.00 | 28 | 1008.2 |
| 20260505193103 | 85 | 230 | 6.1 | 13.0 | 0.00 | 0.00 | 0.00 | 25 | 1008.4 |
| 20260505192602 | 85 | 315 | 5.2 | 8.7 | 0.00 | 0.00 | 0.00 | 25 | 1008.3 |
| 20260505192059 | 86 | 113 | 7.0 | 12.2 | 0.00 | 0.00 | 0.00 | 26 | 1008.7 |
| 20260505191557 | 86 | 206 | 3.5 | 7.8 | 0.00 | 0.00 | 0.00 | 27 | 1008.3 |
| 20260505191055 | 86 | 115 | 1.7 | 7.8 | 0.00 | 0.00 | 0.00 | 29 | 1008.4 |
| 20260505190549 | 86 | 294 | 4.3 | 11.3 | 0.00 | 0.00 | 0.00 | 27 | 1008.6 |
| 20260505190046 | 85 | 87 | 3.5 | 9.6 | 0.00 | 0.00 | 0.00 | 32 | 1008.4 |
| 20260505185543 | 85 | 86 | 6.1 | 12.2 | 0.00 | 0.00 | 0.00 | 31 | 1008.7 |
| 20260505185039 | 85 | 163 | 4.3 | 7.8 | 0.00 | 0.00 | 0.00 | 31 | 1008.9 |
| 20260505184536 | 85 | 115 | 6.1 | 7.8 | 0.00 | 0.00 | 0.00 | 29 | 1009.0 |
| 20260505184033 | 85 | 213 | 0.9 | 6.1 | 0.00 | 0.00 | 0.00 | 32 | 1009.0 |
| 20260505183529 | 85 | 349 | 3.5 | 8.7 | 0.00 | 0.00 | 0.00 | 30 | 1009.0 |
| 20260505183027 | 85 | 97 | 2.6 | 7.0 | 0.00 | 0.00 | 0.00 | 31 | 1009.0 |
| 20260505182523 | 84 | 198 | 3.5 | 8.7 | 0.00 | 0.00 | 0.00 | 30 | 1009.0 |
| 20260505182020 | 84 | 154 | 6.1 | 11.3 | 0.00 | 0.00 | 0.00 | 31 | 1009.2 |
| 20260505181516 | 85 | 80 | 5.2 | 13.0 | 0.00 | 0.00 | 0.00 | 29 | 1009.2 |
| 20260505181014 | 85 | 217 | 4.3 | 6.1 | 0.00 | 0.00 | 0.00 | 34 | 1009.0 |
| 20260505180509 | 85 | 193 | 3.5 | 7.0 | 0.00 | 0.00 | 0.00 | 35 | 1009.1 |
| 20260505180008 | 84 | 203 | 2.6 | 6.1 | 0.00 | 0.00 | 0.00 | 36 | 1009.1 |
| 20260505175502 | 85 | 270 | 4.3 | 6.1 | 0.00 | 0.00 | 0.00 | 33 | 1009.4 |
| 20260505175000 | 84 | 138 | 0.9 | 7.0 | 0.00 | 0.00 | 0.00 | 38 | 1009.1 |
| 20260505174457 | 83 | 206 | 4.3 | 6.1 | 0.00 | 0.00 | 0.00 | 37 | 1009.1 |
| 20260505173953 | 83 | 154 | 2.6 | 3.5 | 0.00 | 0.00 | 0.00 | 37 | 1009.3 |
| 20260505173449 | 83 | 243 | 2.6 | 5.2 | 0.00 | 0.00 | 0.00 | 38 | 1009.2 |
| 20260505172946 | 83 | 86 | 5.2 | 8.7 | 0.00 | 0.00 | 0.00 | 35 | 1009.4 |
| 20260505172445 | 83 | 73 | 0.9 | 5.2 | 0.00 | 0.00 | 0.00 | 41 | 1009.5 |
| 20260505171944 | 82 | 153 | 1.7 | 5.2 | 0.00 | 0.00 | 0.00 | 41 | 1009.5 |
| 20260505171441 | 82 | 229 | 3.5 | 7.8 | 0.00 | 0.00 | 0.00 | 38 | 1009.5 |
| 20260505170937 | 82 | 318 | 5.2 | 8.7 | 0.00 | 0.00 | 0.00 | 39 | 1009.6 |
| 20260505170434 | 82 | 110 | 0.9 | 1.7 | 0.00 | 0.00 | 0.00 | 44 | 1009.6 |
| 20260505165930 | 82 | 117 | 3.5 | 7.0 | 0.00 | 0.00 | 0.00 | 38 | 1009.7 |
| 20260505165426 | 82 | 270 | 1.7 | 3.5 | 0.00 | 0.00 | 0.00 | 36 | 1009.8 |
| 20260505164921 | 81 | 300 | 2.6 | 7.0 | 0.00 | 0.00 | 0.00 | 41 | 1010.0 |
| 20260505164418 | 81 | 201 | 3.5 | 7.0 | 0.00 | 0.00 | 0.00 | 39 | 1010.0 |
| 20260505163916 | 82 | 240 | 5.2 | 8.7 | 0.00 | 0.00 | 0.00 | 39 | 1010.0 |
| 20260505163415 | 82 | 93 | 1.7 | 2.6 | 0.00 | 0.00 | 0.00 | 41 | 1009.9 |
| 20260505162913 | 82 | 138 | 2.6 | 2.6 | 0.00 | 0.00 | 0.00 | 38 | 1010.2 |
| 20260505162409 | 81 | 283 | 0.9 | 2.6 | 0.00 | 0.00 | 0.00 | 41 | 1010.4 |
| 20260505161906 | 82 | 190 | 4.3 | 6.1 | 0.00 | 0.00 | 0.00 | 38 | 1010.3 |
| 20260505161403 | 81 | 123 | 2.6 | 5.2 | 0.00 | 0.00 | 0.00 | 39 | 1010.4 |
| 20260505160900 | 80 | 190 | 1.7 | 5.2 | 0.00 | 0.00 | 0.00 | 42 | 1010.4 |
| 20260505160358 | 80 | 135 | 2.6 | 6.1 | 0.00 | 0.00 | 0.00 | 39 | 1010.6 |
| 20260505153337 | 78 | 84 | 1.7 | 3.5 | 0.00 | 0.00 | 0.00 | 42 | 1011.3 |
| 20260505152834 | 80 | 140 | 3.5 | 7.0 | 0.00 | 0.00 | 0.00 | 41 | 1010.9 |
| 20260505152332 | 80 | 203 | 1.7 | 1.7 | 0.00 | 0.00 | 0.00 | 43 | 1011.0 |
| 20260505151831 | 78 | 144 | 0.9 | 1.7 | 0.00 | 0.00 | 0.00 | 44 | 1011.2 |
| 20260505151328 | 77 | 8 | 1.7 | 7.0 | 0.00 | 0.00 | 0.00 | 41 | 1011.2 |
| 20260505150825 | 76 | 120 | 0.9 | 1.7 | 0.00 | 0.00 | 0.00 | 44 | 1011.3 |
| 20260505150322 | 77 | 171 | 0.9 | 2.6 | 0.00 | 0.00 | 0.00 | 45 | 1011.0 |
| 20260505140246 | 74 | 98 | 0.9 | 2.6 | 0.00 | 0.00 | 0.00 | 47 | 1011.6 |
| 20260505130210 | 70 | 143 | 0.9 | 1.7 | 0.00 | 0.00 | 0.00 | 52 | 1011.3 |
| 20260505124700 | 68 | 97 | 0.9 | 0.9 | 0.00 | 0.00 | 0.00 | 58 | 1011.3 |
| 20260505124157 | 67 | 119 | 1.7 | 2.6 | 0.00 | 0.00 | 0.00 | 57 | 1011.1 |
| 20260505123653 | 67 | 93 | 2.6 | 2.6 | 0.00 | 0.00 | 0.00 | 58 | 1011.4 |
| 20260505123150 | 66 | 196 | 1.7 | 2.6 | 0.00 | 0.00 | 0.00 | 59 | 1011.3 |